Simultaneous Nadir Overpasses (SNOs) Predictions

Prediction of SNOs over PacNW region [( 10.00, 139.50) to ( 22.70, 165.60)] between AQUA and NPP Satellites:

Table of predicted SNOs over PacNW region for the next 30.0 days since TLE Epoch: 4/15/2016
Index Date (AQUA) Time (AQUA) AQUA Lat,Lon Date (NPP) Time (NPP) NPP Lat,Lon Distance(km) Time Diff (sec)
1 04/19/2016 15:10:56 22.60, 159.63 04/19/2016 15:12:03 23.11, 157.26 249.78 67
2 04/22/2016 03:32:47 22.68, 147.31 04/22/2016 03:29:17 26.15, 144.92 455.74 210
3 04/27/2016 16:00:23 22.61, 147.27 04/27/2016 16:02:48 23.19, 144.58 283.00 145
4 05/05/2016 15:10:55 22.60, 159.62 05/05/2016 15:12:05 23.12, 157.23 251.92 70
5 05/08/2016 03:32:44 22.67, 147.31 05/08/2016 03:29:15 25.95, 144.95 436.10 209




NCC Satellite Simultaneous Nadir Overpasses (SNOs) Prediction Service
